FW0810 Weather Reports


Display with metric or nautical units.
time (UTC)temp
F
wind
direction
speed
MPH
gust
MPH
rain 1hr
in
rain 24hr
in
rain mn
in
humidity
%
barometer
mb
20260906091112 85 128 0.0 2.0 0.00 0.00 0.00 65 1024.6
20260906090610 85 128 0.0 2.0 0.00 0.00 0.00 64 1024.6
20260906090112 84 130 0.0 1.0 0.00 0.00 0.00 66 1024.6
20260906085108 83 136 0.0 3.0 0.00 0.00 0.00 66 1024.6
20260906084105 82 143 0.0 4.0 0.00 0.00 0.00 67 1024.6
20260906083100 82 139 0.0 3.0 0.00 0.00 0.00 70 1024.5
20260906082558 82 135 0.0 3.0 0.00 0.00 0.00 71 1024.7
20260906082059 81 146 0.0 3.0 0.00 0.00 0.00 71 1024.6
20260906081558 80 117 0.0 2.0 0.00 0.00 0.00 72 1024.7
20260906081057 80 117 0.0 2.0 0.00 0.00 0.00 72 1024.7
20260906080556 80 108 0.0 1.0 0.00 0.00 0.00 74 1024.7
20260906080107 79 108 0.0 1.0 0.00 0.00 0.00 73 1024.6
20260906075550 79 109 0.0 3.0 0.00 0.00 0.00 74 1024.6
20260906075048 79 112 0.0 3.0 0.00 0.00 0.00 75 1024.5
20260906074547 78 112 0.0 2.0 0.00 0.00 0.00 76 1024.6
20260906074045 78 136 0.0 2.0 0.00 0.00 0.00 75 1024.5
20260906073555 77 136 0.0 3.0 0.00 0.00 0.00 75 1024.5
20260906073042 77 135 0.0 3.0 0.00 0.00 0.00 76 1024.4
20260906072538 76 155 0.0 3.0 0.00 0.00 0.00 77 1024.5
20260906072030 76 162 0.0 3.0 0.00 0.00 0.00 78 1024.5
20260906071525 76 162 0.0 3.0 0.00 0.00 0.00 78 1024.4
20260906071022 76 211 0.0 1.0 0.00 0.00 0.00 79 1024.5
20260906070522 75 256 0.0 0.0 0.00 0.00 0.00 79 1024.5
20260906070021 75 274 0.0 0.0 0.00 0.00 0.00 80 1024.5
20260906064515 71 278 0.0 0.0 0.00 0.00 0.00 84 1024.2
20260906064014 71 278 0.0 0.0 0.00 0.00 0.00 84 1024.2
20260906063515 70 278 0.0 0.0 0.00 0.00 0.00 85 1024.4
20260906063012 69 278 0.0 1.0 0.00 0.00 0.00 86 1024.4
20260906062512 69 278 0.0 1.0 0.00 0.00 0.00 87 1024.4
20260906061511 67 278 0.0 0.0 0.00 0.00 0.00 88 1024.2
20260906061009 67 278 0.0 1.0 0.00 0.00 0.00 88 1024.1
20260906060008 66 278 0.0 3.0 0.00 0.00 0.00 88 1024.1
20260906055506 66 269 0.0 1.0 0.00 0.00 0.00 89 1024.0
20260906055005 66 269 0.0 0.0 0.00 0.00 0.00 89 1024.0
20260906054516 65 269 0.0 2.0 0.00 0.00 0.00 89 1023.9
20260906054002 65 269 0.0 2.0 0.00 0.00 0.00 89 1023.9
20260906053504 65 266 0.0 2.0 0.00 0.00 0.00 89 1023.9
20260906053002 65 266 0.0 2.0 0.00 0.00 0.00 89 1023.9
20260906052502 64 268 0.0 0.0 0.00 0.00 0.00 89 1023.8
20260906052000 64 268 0.0 0.0 0.00 0.00 0.00 89 1023.8
20260906051001 64 267 0.0 0.0 0.00 0.00 0.00 89 1023.6
20260906050502 64 267 0.0 0.0 0.00 0.00 0.00 89 1023.7
20260906045959 64 267 0.0 0.0 0.00 0.00 0.00 89 1023.8
20260906044957 64 267 0.0 0.0 0.00 0.00 0.00 89 1023.6
20260906044455 64 267 0.0 0.0 0.00 0.00 0.00 89 1023.5
20260906043957 64 268 0.0 0.0 0.00 0.00 0.00 89 1023.5
20260906043455 64 267 0.0 1.0 0.00 0.00 0.00 89 1023.5
20260906042957 64 268 0.0 1.0 0.00 0.00 0.00 89 1023.5
20260906042456 64 268 0.0 0.0 0.00 0.00 0.00 89 1023.5
20260906041956 64 268 0.0 0.0 0.00 0.00 0.00 89 1023.5
20260906041456 64 268 0.0 0.0 0.00 0.00 0.00 89 1023.5
20260906040959 65 268 0.0 0.0 0.00 0.00 0.00 89 1023.6
20260906040456 65 268 0.0 0.0 0.00 0.00 0.00 89 1023.5
20260906035456 65 267 0.0 0.0 0.00 0.00 0.00 89 1023.5
20260906034456 65 267 0.0 1.0 0.00 0.00 0.00 88 1023.3
20260906033955 65 267 0.0 1.0 0.00 0.00 0.00 88 1023.4
20260906033457 65 267 0.0 0.0 0.00 0.00 0.00 88 1023.2
20260906032957 65 267 0.0 0.0 0.00 0.00 0.00 88 1023.3
20260906032456 65 267 0.0 0.0 0.00 0.00 0.00 88 1023.1
20260906031950 65 267 0.0 0.0 0.00 0.00 0.00 88 1023.2
20260906031444 65 267 0.0 2.0 0.00 0.00 0.00 88 1023.1
20260906030938 66 266 0.0 2.0 0.00 0.00 0.00 87 1023.2
20260906030431 66 265 0.0 1.0 0.00 0.00 0.00 88 1023.1
20260906024913 66 265 0.0 0.0 0.00 0.00 0.00 87 1023.1
20260906024405 66 264 0.0 1.0 0.00 0.00 0.00 87 1023.1
20260906023902 66 264 0.0 1.0 0.00 0.00 0.00 87 1023.2
20260906023355 67 264 0.0 0.0 0.00 0.00 0.00 87 1023.2
20260906022847 67 264 0.0 0.0 0.00 0.00 0.00 87 1023.1
20260906022341 67 264 0.0 0.0 0.00 0.00 0.00 87 1023.0
20260906021835 67 264 0.0 0.0 0.00 0.00 0.00 87 1023.0
20260906021327 67 264 0.0 0.0 0.00 0.00 0.00 86 1023.0
20260906020822 67 264 0.0 0.0 0.00 0.00 0.00 87 1023.0
20260906020330 67 264 0.0 0.0 0.00 0.00 0.00 86 1023.0
20260906015811 67 264 0.0 0.0 0.00 0.00 0.00 86 1023.0
20260906015305 67 264 0.0 0.0 0.00 0.00 0.00 86 1023.1
20260906014756 67 264 0.0 0.0 0.00 0.00 0.00 86 1023.0
20260906014252 67 264 0.0 0.0 0.00 0.00 0.00 86 1023.0
20260906013748 68 264 0.0 0.0 0.00 0.00 0.00 85 1023.0
20260906012735 68 264 0.0 0.0 0.00 0.00 0.00 84 1023.1
20260906012226 68 264 0.0 0.0 0.00 0.00 0.00 84 1023.1
20260906011721 68 264 0.0 0.0 0.00 0.00 0.00 84 1023.2
20260906011217 69 264 0.0 1.0 0.00 0.00 0.00 84 1023.1
20260906010710 69 264 0.0 1.0 0.00 0.00 0.00 84 1023.1
20260906010202 69 264 0.0 0.0 0.00 0.00 0.00 85 1023.1
20260906005204 69 264 0.0 0.0 0.00 0.00 0.00 85 1023.1
20260906004705 69 264 0.0 1.0 0.00 0.00 0.00 85 1023.1
20260906004202 69 264 0.0 3.0 0.00 0.00 0.00 84 1023.1
20260906003700 69 264 0.0 3.0 0.00 0.00 0.00 83 1023.1
20260906003157 69 273 0.0 3.0 0.00 0.00 0.00 83 1023.2
20260906002656 69 272 0.0 0.0 0.00 0.00 0.00 83 1023.3
20260906002153 69 272 0.0 0.0 0.00 0.00 0.00 83 1023.2
20260906001651 69 273 0.0 0.0 0.00 0.00 0.00 82 1023.2
20260906001150 70 273 0.0 0.0 0.00 0.00 0.00 82 1023.3
20260906000648 70 273 0.0 0.0 0.00 0.00 0.00 82 1023.2
20260906000145 70 273 0.0 2.0 0.00 0.00 0.00 82 1023.2
20260905235645 70 273 0.0 2.0 0.00 0.00 0.00 82 1023.3
20260905234640 70 274 0.0 3.0 0.00 0.00 0.00 82 1023.4
20260905234138 70 274 1.0 4.0 0.00 0.00 0.00 81 1023.3
20260905232637 71 270 0.0 3.0 0.00 0.00 0.00 79 1023.4
20260905232136 71 270 0.0 3.0 0.00 0.00 0.00 78 1023.3
20260905231631 71 268 0.0 0.0 0.00 0.00 0.00 79 1023.4
20260905231128 71 268 0.0 0.0 0.00 0.00 0.00 78 1023.4
20260905230627 71 268 0.0 0.0 0.00 0.00 0.00 78 1023.3
20260905230127 72 268 0.0 0.0 0.00 0.00 0.00 78 1023.4
20260905225628 72 268 0.0 0.0 0.00 0.00 0.00 77 1023.3
20260905225127 72 267 0.0 0.0 0.00 0.00 0.00 77 1023.2
20260905224625 72 268 0.0 0.0 0.00 0.00 0.00 77 1023.2
20260905224125 72 268 0.0 0.0 0.00 0.00 0.00 76 1023.2
20260905223625 72 268 0.0 0.0 0.00 0.00 0.00 75 1023.1
20260905223125 72 268 0.0 0.0 0.00 0.00 0.00 75 1023.1
20260905222623 73 268 0.0 0.0 0.00 0.00 0.00 75 1023.1
20260905222123 73 268 0.0 0.0 0.00 0.00 0.00 74 1023.1
20260905221621 73 269 0.0 0.0 0.00 0.00 0.00 74 1023.1
20260905221121 74 269 0.0 0.0 0.00 0.00 0.00 74 1023.0
20260905220625 74 269 0.0 0.0 0.00 0.00 0.00 74 1022.9
20260905220122 74 269 0.0 4.0 0.00 0.00 0.00 74 1023.0
20260905215620 74 269 0.0 4.0 0.00 0.00 0.00 73 1022.9
20260905215118 74 285 0.0 1.0 0.00 0.00 0.00 72 1022.9
20260905214615 75 305 0.0 0.0 0.00 0.00 0.00 71 1022.9
20260905214119 75 306 0.0 0.0 0.00 0.00 0.00 71 1022.8
20260905213609 75 306 0.0 0.0 0.00 0.00 0.00 71 1022.8
20260905213103 75 306 0.0 0.0 0.00 0.00 0.00 71 1022.8
20260905212557 75 306 0.0 0.0 0.00 0.00 0.00 71 1022.8
20260905212054 76 306 0.0 0.0 0.00 0.00 0.00 69 1022.8
20260905211547 76 347 0.0 0.0 0.00 0.00 0.00 69 1022.8
20260905211038 76 348 0.0 0.0 0.00 0.00 0.00 69 1022.8
20260905210533 77 348 0.0 0.0 0.00 0.00 0.00 69 1022.8
20260905210031 77 348 0.0 0.0 0.00 0.00 0.00 68 1022.8
20260905205014 77 348 0.0 0.0 0.00 0.00 0.00 67 1022.7
20260905204510 78 349 0.0 0.0 0.00 0.00 0.00 66 1022.7
20260905204004 78 349 0.0 0.0 0.00 0.00 0.00 66 1022.7
20260905202950 78 349 0.0 0.0 0.00 0.00 0.00 66 1022.7
20260905202446 78 349 0.0 0.0 0.00 0.00 0.00 65 1022.7
20260905201939 78 349 0.0 0.0 0.00 0.00 0.00 65 1022.7
20260905201434 79 349 0.0 0.0 0.00 0.00 0.00 64 1022.7
20260905200929 80 349 0.0 0.0 0.00 0.00 0.00 63 1022.7
20260905200425 80 349 0.0 0.0 0.00 0.00 0.00 62 1022.5
20260905195925 81 349 0.0 0.0 0.00 0.00 0.00 61 1022.5
20260905195428 81 347 0.0 2.0 0.00 0.00 0.00 61 1022.4
20260905194925 82 348 0.0 3.0 0.00 0.00 0.00 61 1022.2
20260905194425 82 316 0.0 3.0 0.00 0.00 0.00 61 1022.1
20260905193925 82 301 0.0 3.0 0.00 0.00 0.00 60 1021.9
20260905193425 82 341 0.0 3.0 0.00 0.00 0.00 60 1022.0
20260905192926 82 295 0.0 3.0 0.00 0.00 0.00 59 1021.8
20260905192425 83 266 0.0 3.0 0.00 0.00 0.00 59 1021.8
20260905191924 83 308 0.0 4.0 0.00 0.00 0.00 58 1021.8
20260905191422 83 288 0.0 4.0 0.00 0.00 0.00 58 1021.8
20260905190922 83 278 0.0 1.0 0.00 0.00 0.00 57 1021.8
20260905190422 83 278 0.0 1.0 0.00 0.00 0.00 56 1021.7
20260905185919 84 278 0.0 1.0 0.00 0.00 0.00 55 1021.7
20260905185418 84 279 0.0 3.0 0.00 0.00 0.00 55 1021.6
20260905184915 84 278 0.0 3.0 0.00 0.00 0.00 54 1021.5
20260905184413 84 273 0.0 3.0 0.00 0.00 0.00 53 1021.5
20260905183911 85 284 0.0 5.0 0.00 0.00 0.00 53 1021.4
20260905183411 85 281 0.0 5.0 0.00 0.00 0.00 52 1021.2
20260905182913 85 283 0.0 5.0 0.00 0.00 0.00 51 1021.2
20260905181910 85 300 0.0 2.0 0.00 0.00 0.00 49 1021.0
20260905181408 86 309 0.0 1.0 0.00 0.00 0.00 48 1021.0
20260905180905 86 303 0.0 1.0 0.00 0.00 0.00 47 1020.9
20260905175905 87 281 0.0 1.0 0.00 0.00 0.00 46 1020.7
20260905175404 87 281 0.0 3.0 0.00 0.00 0.00 45 1020.7
20260905174903 88 285 1.0 10.0 0.00 0.00 0.00 44 1020.6
20260905174359 88 283 1.0 10.0 0.00 0.00 0.00 43 1020.6
20260905173859 89 290 0.0 4.0 0.00 0.00 0.00 42 1020.5
20260905173400 89 283 0.0 2.0 0.00 0.00 0.00 41 1020.7
20260905172859 89 289 0.0 3.0 0.00 0.00 0.00 40 1020.6
20260905172401 90 287 0.0 4.0 0.00 0.00 0.00 39 1020.5
20260905171857 90 276 0.0 4.0 0.00 0.00 0.00 39 1020.5
20260905171356 91 264 0.0 8.0 0.00 0.00 0.00 40 1020.6
20260905170906 91 285 1.0 8.0 0.00 0.00 0.00 39 1020.6
20260905170356 91 290 2.0 9.0 0.00 0.00 0.00 39 1020.6
20260905165856 92 259 1.0 11.0 0.00 0.00 0.00 40 1020.7
20260905165351 92 293 2.0 11.0 0.00 0.00 0.00 39 1020.7
20260905164849 92 288 2.0 9.0 0.00 0.00 0.00 39 1020.7
20260905164350 93 308 1.0 9.0 0.00 0.00 0.00 40 1020.7
20260905163850 93 297 1.0 6.0 0.00 0.00 0.00 40 1020.7
20260905162848 93 288 1.0 7.0 0.00 0.00 0.00 40 1020.6
20260905161851 94 292 1.0 8.0 0.00 0.00 0.00 40 1020.6
20260905161348 94 293 1.0 9.0 0.00 0.00 0.00 39 1020.4
20260905160347 95 286 0.0 4.0 0.00 0.00 0.00 39 1020.5
20260905155347 95 255 2.0 9.0 0.00 0.00 0.00 38 1020.5
20260905154349 95 255 1.0 9.0 0.00 0.00 0.00 38 1020.4
20260905153843 96 311 0.0 4.0 0.00 0.00 0.00 37 1020.3
20260905153343 96 196 1.0 7.0 0.00 0.00 0.00 37 1020.4
20260905152843 96 286 1.0 10.0 0.00 0.00 0.00 37 1020.3
20260905152343 96 287 1.0 10.0 0.00 0.00 0.00 36 1020.3
20260905151843 96 170 0.0 2.0 0.00 0.00 0.00 36 1020.3
20260905151345 96 125 2.0 11.0 0.00 0.00 0.00 35 1020.2
20260905150843 96 278 3.0 11.0 0.00 0.00 0.00 36 1020.3
20260905150341 96 274 2.0 8.0 0.00 0.00 0.00 35 1020.4
20260905145841 96 283 1.0 6.0 0.00 0.00 0.00 35 1020.3
20260905145343 96 165 1.0 9.0 0.00 0.00 0.00 35 1020.3
20260905143837 96 166 1.0 7.0 0.00 0.00 0.00 35 1020.3
20260905143341 96 269 1.0 7.0 0.00 0.00 0.00 34 1020.4
20260905142845 96 167 1.0 5.0 0.00 0.00 0.00 33 1020.3
20260905142337 96 148 0.0 5.0 0.00 0.00 0.00 34 1020.5
20260905141837 96 283 1.0 7.0 0.00 0.00 0.00 34 1020.6
20260905140838 97 197 2.0 10.0 0.00 0.00 0.00 34 1020.5
20260905140337 97 265 2.0 9.0 0.00 0.00 0.00 33 1020.4
20260905135838 96 264 1.0 8.0 0.00 0.00 0.00 33 1020.4
20260905134832 96 276 1.0 6.0 0.00 0.00 0.00 33 1020.6
20260905134334 96 263 1.0 6.0 0.00 0.00 0.00 34 1020.6
20260905133833 96 267 2.0 10.0 0.00 0.00 0.00 33 1020.8
20260905133333 96 205 2.0 10.0 0.00 0.00 0.00 33 1020.8
20260905132833 96 285 1.0 7.0 0.00 0.00 0.00 33 1020.8
20260905132336 96 275 1.0 10.0 0.00 0.00 0.00 32 1020.8
20260905131835 96 288 1.0 10.0 0.00 0.00 0.00 33 1020.8
20260905131331 96 228 2.0 9.0 0.00 0.00 0.00 33 1020.9
20260905130325 96 278 1.0 9.0 0.00 0.00 0.00 32 1021.1
20260905125825 96 295 1.0 8.0 0.00 0.00 0.00 31 1021.0
20260905125325 96 294 2.0 8.0 0.00 0.00 0.00 31 1021.1
20260905124325 96 207 0.0 6.0 0.00 0.00 0.00 33 1021.2
20260905123825 96 272 1.0 7.0 0.00 0.00 0.00 35 1021.3
20260905123322 96 194 1.0 7.0 0.00 0.00 0.00 34 1021.3
20260905122323 95 273 0.0 5.0 0.00 0.00 0.00 35 1021.4
20260905121823 95 296 0.0 4.0 0.00 0.00 0.00 35 1021.5
20260905121323 94 190 1.0 5.0 0.00 0.00 0.00 37 1021.6
20260905120824 94 275 2.0 8.0 0.00 0.00 0.00 38 1021.6
20260905120322 94 283 2.0 8.0 0.00 0.00 0.00 37 1021.6
20260905115823 95 300 1.0 7.0 0.00 0.00 0.00 37 1021.7
20260905115322 94 281 0.0 5.0 0.00 0.00 0.00 38 1021.7
20260905114816 94 156 1.0 10.0 0.00 0.00 0.00 38 1021.8
20260905113828 94 295 1.0 9.0 0.00 0.00 0.00 38 1021.7
20260905113315 94 294 1.0 9.0 0.00 0.00 0.00 38 1021.8
20260905112815 94 266 1.0 6.0 0.00 0.00 0.00 38 1021.8
20260905112312 94 276 1.0 6.0 0.00 0.00 0.00 38 1021.8
20260905111813 94 284 1.0 7.0 0.00 0.00 0.00 39 1021.9
20260905111312 93 312 1.0 7.0 0.00 0.00 0.00 38 1021.8
20260905110810 93 259 1.0 8.0 0.00 0.00 0.00 38 1021.8
20260905110311 93 284 2.0 8.0 0.00 0.00 0.00 37 1021.9
20260905105810 94 285 1.0 7.0 0.00 0.00 0.00 36 1021.8
20260905105311 94 350 0.0 5.0 0.00 0.00 0.00 36 1021.8
20260905104815 93 201 0.0 3.0 0.00 0.00 0.00 35 1021.8
20260905103807 92 286 2.0 6.0 0.00 0.00 0.00 36 1021.9
20260905102805 92 289 1.0 11.0 0.00 0.00 0.00 37 1021.9
20260905102306 91 296 2.0 8.0 0.00 0.00 0.00 38 1021.9
20260905101807 91 332 2.0 8.0 0.00 0.00 0.00 39 1021.9
20260905101305 91 269 1.0 8.0 0.00 0.00 0.00 39 1022.0
20260905100804 91 293 1.0 7.0 0.00 0.00 0.00 41 1022.0
20260905100305 91 283 2.0 10.0 0.00 0.00 0.00 41 1022.2
20260905095805 91 278 1.0 10.0 0.00 0.00 0.00 39 1022.2
20260905095306 90 239 1.0 9.0 0.00 0.00 0.00 42 1022.2
20260905094804 90 288 0.0 3.0 0.00 0.00 0.00 45 1022.3
20260905094304 89 126 0.0 1.0 0.00 0.00 0.00 46 1022.3
20260905093804 88 127 0.0 4.0 0.00 0.00 0.00 49 1022.3
20260905092805 87 119 0.0 4.0 0.00 0.00 0.00 51 1022.3
20260905092306 86 117 0.0 3.0 0.00 0.00 0.00 52 1022.3
20260905091802 86 118 1.0 3.0 0.00 0.00 0.00 52 1022.2
20260905091302 85 115 0.0 2.0 0.00 0.00 0.00 53 1022.2